TimeCST,TemperatureF,Dew PointF,Humidity,Sea Level PressureIn,VisibilityMPH,Wind Direction,Wind SpeedMPH,Gust SpeedMPH,PrecipitationIn,Events,Conditions,WindDirDegrees,DateUTC
12:56 AM,41.0,39.0,93,30.22,10.0,Calm,Calm,-,N/A,,Clear,0,2013-01-20 06:56:00
1:56 AM,39.9,37.9,93,30.21,10.0,Calm,Calm,-,N/A,,Clear,0,2013-01-20 07:56:00
2:56 AM,39.0,37.0,93,30.20,10.0,Calm,Calm,-,N/A,,Clear,0,2013-01-20 08:56:00
3:56 AM,41.0,37.9,89,30.20,10.0,Calm,Calm,-,N/A,,Clear,0,2013-01-20 09:56:00
4:56 AM,37.9,36.0,93,30.20,10.0,Calm,Calm,-,N/A,,Clear,0,2013-01-20 10:56:00
5:56 AM,37.9,36.0,93,30.21,10.0,Calm,Calm,-,N/A,,Clear,0,2013-01-20 11:56:00
6:56 AM,39.9,37.0,89,30.22,10.0,Calm,Calm,-,N/A,,Clear,0,2013-01-20 12:56:00
7:56 AM,46.0,43.0,89,30.22,10.0,NNW,3.5,-,N/A,,Clear,340,2013-01-20 13:56:00
8:56 AM,54.0,44.1,69,30.24,10.0,North,5.8,-,N/A,,Unknown,350,2013-01-20 14:56:00
9:56 AM,59.0,43.0,55,30.24,-9999.0,North,-9999.0,-,N/A,,Clear,0,2013-01-20 15:56:00
10:56 AM,62.1,44.1,52,30.21,-9999.0,North,-9999.0,-,N/A,,Unknown,0,2013-01-20 16:56:00
11:23 AM,-9999,-9999,N/A,30.23,-9999.0,North,-9999.0,-,N/A,,Unknown,0,2013-01-20 17:23:00
11:56 AM,64.0,42.1,45,30.17,10.0,NNW,6.9,-,N/A,,Unknown,330,2013-01-20 17:56:00
12:56 PM,66.0,41.0,40,30.14,10.0,North,8.1,-,N/A,,Clear,360,2013-01-20 18:56:00
1:56 PM,66.0,39.9,38,30.12,10.0,Calm,Calm,-,N/A,,Clear,0,2013-01-20 19:56:00
2:56 PM,66.0,39.9,38,30.10,10.0,West,3.5,-,N/A,,Clear,280,2013-01-20 20:56:00
3:56 PM,64.9,39.9,40,30.10,10.0,NW,4.6,-,N/A,,Clear,310,2013-01-20 21:56:00
4:56 PM,61.0,41.0,48,30.11,10.0,Calm,Calm,-,N/A,,Clear,0,2013-01-20 22:56:00
5:56 PM,54.0,42.1,64,30.11,10.0,Calm,Calm,-,N/A,,Clear,0,2013-01-20 23:56:00
6:56 PM,50.0,43.0,77,30.11,10.0,Calm,Calm,-,N/A,,Clear,0,2013-01-21 00:56:00
7:56 PM,48.0,43.0,83,30.12,10.0,West,3.5,-,N/A,,Clear,270,2013-01-21 01:56:00
8:56 PM,51.1,44.1,77,30.16,10.0,WNW,3.5,-,N/A,,Clear,290,2013-01-21 02:56:00
9:56 PM,48.9,45.0,86,30.13,10.0,Calm,Calm,-,N/A,,Clear,0,2013-01-21 03:56:00
10:56 PM,45.0,41.0,86,30.13,10.0,WNW,3.5,-,N/A,,Clear,290,2013-01-21 04:56:00
11:56 PM,46.0,44.1,93,30.12,10.0,WNW,4.6,-,N/A,,Clear,300,2013-01-21 05:56:00